Location: Observatoire
(46.1952°N, 5.3391°E)
Time: 01:34:13
(UTC+02:00)

BEESAT - Visible Passes

Search period start: 19 April 2024 00:00
Search period end: 29 April 2024 00:00
Orbit: 693 x 702 km, 98.5° (Epoch: 18 April)

Date Brightness Start Highest point End Pass type
(mag) Time Alt. Az. Time Alt. Az. Time Alt. Az.
19 Apr ? 00:12:07 10° N 00:16:02 51° NNW 00:16:02 51° NNW visible
19 Apr ? 23:15:55 10° NNE 23:19:08 34° ENE 23:19:08 34° ENE visible
20 Apr ? 00:53:56 10° N 00:57:48 25° WNW 00:57:55 25° WNW visible
20 Apr ? 22:21:37 10° ENE 22:22:13 11° ENE 22:22:13 11° ENE visible
20 Apr ? 23:57:00 10° NNE 00:01:01 63° N 00:01:01 63° N visible
21 Apr ? 01:36:55 10° NW 01:38:35 12° NW 01:39:48 11° WNW visible
21 Apr ? 23:01:06 10° NE 23:04:06 27° ENE 23:04:06 27° ENE visible
22 Apr ? 00:38:37 10° N 00:42:51 34° WNW 00:42:53 34° WNW visible
22 Apr ? 23:41:56 10° NNE 23:45:58 61° NE 23:45:58 61° NE visible
23 Apr ? 01:20:56 10° NNW 01:23:43 16° WNW 01:24:45 15° WNW visible
23 Apr ? 22:46:24 10° NE 22:49:02 20° ENE 22:49:02 20° ENE visible
24 Apr ? 00:23:20 10° N 00:27:49 46° WNW 00:27:49 46° WNW visible
24 Apr ? 23:26:55 10° NNE 23:30:53 48° ENE 23:30:53 48° ENE visible
25 Apr ? 01:05:19 10° NNW 01:08:48 21° WNW 01:09:41 20° WNW visible
25 Apr ? 22:31:56 10° NE 22:33:57 15° ENE 22:33:57 15° ENE visible
26 Apr ? 00:08:08 10° N 00:12:44 65° WNW 00:12:44 65° WNW visible
26 Apr ? 23:11:58 10° NNE 23:15:47 35° E 23:15:47 35° E visible
27 Apr ? 00:49:50 10° N 00:53:50 28° WNW 00:54:35 27° W visible
27 Apr ? 22:18:12 10° ENE 22:18:50 11° E 22:18:50 11° E visible
27 Apr ? 23:52:57 10° NNE 23:57:37 87° N 23:57:37 87° N visible
28 Apr ? 01:32:29 10° NNW 01:34:37 13° WNW 01:36:24 11° W visible
28 Apr ? 22:57:06 10° NE 23:00:39 26° E 23:00:39 26° E visible
